Location: Monrovia
(34.7865°N, 86.7139°W)
Time: 21:59:42
(UTC+00:00)

CENTAUR R/B - Pass Details

Date: 14 July 2020
Orbit: 760 x 1428 km, 63.5° (Epoch: 05 August)

Event Time Altitude Azimuth Distance (km) Brightness Sun altitude
Exits shadow 08:30:24 15° 152° (SSE) 2,143 4.1 -22.4°
Maximum altitude 08:33:46 24° 108° (ESE) 1,737 4.0 -21.9°
Drops below altitude 10° 08:38:41 10° 56° (NE) 2,727 5.9 -21.2°
Sets 08:41:55 0° 44° (NE) 3,801 7.2 -20.8°
